Theta_e
298 290 288 288 290 291 291 291 291 292 292 292 291 289 289 288 288 290 290 292 292 290 289 289 291 292 292 291 290 290 292 291 290 291 291 291 294 296 296 299 303 305 307 310 311 314 317 319 321 323 323 324 324 325 324 324 324 325 325 325 325 327 328 327 327 326 326 325 324 325 328 329 330 329 328 326 326 325 325 324 324 323 323 323 322 321
296 289 289 292 293 293 291 291 292 291 291 290 291 289 288 289 288 290 292 293 292 291 287 288 288 289 290 291 290 290 290 292 292 292 292 292 292 295 296 297 300 304 305 305 306 309 313 316 318 320 322 321 321 323 324 323 324 325 325 324 326 326 327 328 328 327 326 327 327 326 327 327 328 328 327 328 327 326 324 323 323 323 323 324 323 321
290 289 291 293 294 292 291 291 291 291 290 291 289 288 287 287 289 290 291 292 291 291 286 287 288 290 292 292 289 289 291 293 294 294 295 294 293 293 295 297 297 298 302 304 305 308 312 314 316 318 319 321 323 323 323 324 324 324 324 324 325 325 326 327 328 327 327 327 326 327 324 326 320 324 329 330 328 324 324 324 323 323 323 323 323 323
285 289 293 293 294 292 292 291 291 290 290 287 287 285 285 288 288 285 289 290 290 288 287 286 286 289 289 287 289 290 291 292 294 295 295 295 295 294 295 297 298 298 300 302 303 305 309 313 315 316 317 320 321 321 322 323 323 324 324 324 325 325 326 327 327 325 328 327 326 324 321 319 321 320 319 325 325 325 324 324 323 323 324 324 324 324
288 289 292 292 293 293 291 291 289 287 286 288 289 287 287 288 288 287 288 289 289 290 288 286 285 286 285 289 289 290 291 291 293 292 293 293 294 296 295 294 297 299 299 300 301 302 306 309 313 315 317 319 319 321 322 323 323 325 324 325 325 325 325 326 325 325 326 322 318 317 314 313 314 313 321 324 325 327 325 326 325 325 323 322 322 324
289 290 292 290 291 292 291 289 289 289 284 286 290 290 288 290 289 288 288 287 285 285 285 288 281 281 282 284 287 290 288 290 291 291 292 293 294 294 293 295 296 297 299 300 301 301 304 308 311 314 316 317 319 320 322 323 324 324 324 324 325 325 325 325 325 325 324 323 323 319 319 318 318 320 319 320 322 325 325 326 328 326 324 322 322 323
290 289 292 290 290 290 291 290 290 290 286 285 287 292 291 290 289 288 287 285 281 280 286 286 282 276 282 284 284 284 285 289 289 290 293 293 294 293 294 295 295 295 296 296 297 298 300 304 308 311 314 317 318 320 321 321 323 324 324 324 325 325 325 325 325 323 322 323 323 322 322 322 321 320 321 323 323 326 327 327 326 327 326 325 324 323
288 287 289 291 289 289 288 288 290 290 287 284 289 291 292 291 289 288 288 286 281 283 287 282 280 278 281 285 285 285 285 287 288 290 290 292 294 294 294 295 295 295 295 296 297 298 299 302 306 309 312 315 318 319 319 320 321 322 323 323 323 324 323 325 325 323 323 323 323 322 321 321 321 321 321 320 318 318 321 325 326 326 327 327 327 326
290 286 288 288 288 287 287 290 292 291 289 286 292 293 291 292 291 289 287 284 283 285 280 280 285 282 277 283 285 285 286 286 287 289 290 292 292 293 294 295 295 295 295 296 297 297 298 299 303 308 310 314 316 317 318 319 320 321 321 321 321 323 322 322 322 322 322 322 323 322 322 320 320 321 319 311 311 315 316 323 325 325 325 326 327 327
289 290 290 291 289 287 289 290 291 292 289 292 294 295 294 292 291 289 285 285 285 280 277 280 282 278 277 281 283 282 285 284 286 290 291 290 291 292 293 294 295 295 294 295 296 298 298 299 301 305 308 310 313 315 315 316 316 318 319 319 319 320 321 321 321 321 321 321 321 321 321 320 320 318 313 311 313 314 316 321 322 323 324 325 325 326
290 291 296 290 289 290 289 289 290 292 292 295 293 291 289 287 286 284 284 283 284 277 278 280 281 282 277 281 285 286 285 287 290 289 288 288 288 291 292 293 295 295 294 295 295 295 296 295 297 298 305 308 309 310 310 312 313 314 316 317 317 319 319 318 320 320 320 321 320 322 321 320 320 318 316 312 312 314 315 318 320 321 322 323 324 324
287 290 291 290 289 290 292 291 292 292 293 295 288 286 288 286 284 283 282 283 279 276 278 279 281 281 276 277 282 287 285 284 287 289 291 290 290 289 290 293 294 294 294 294 294 295 295 294 296 295 299 302 304 304 307 308 309 311 313 315 316 317 317 317 318 318 319 320 320 320 320 320 320 318 317 316 316 314 315 317 319 319 320 321 322 322
286 286 287 290 292 291 290 290 290 292 293 291 289 288 285 280 280 277 279 277 276 277 280 281 283 281 280 282 285 286 286 288 286 289 291 289 289 289 290 291 292 292 291 294 295 294 294 296 297 297 298 297 299 303 305 307 308 310 312 313 314 316 316 316 316 317 318 318 319 319 319 319 318 317 317 317 316 314 314 315 316 317 318 319 319 320
282 283 286 287 290 291 291 288 285 286 289 287 288 285 283 276 275 275 273 272 271 276 279 280 281 280 281 282 290 291 294 294 293 290 290 290 292 292 292 293 292 292 293 293 294 294 295 296 297 297 298 299 299 300 302 304 306 308 310 311 312 315 315 315 315 316 317 318 318 318 318 318 315 315 315 316 316 314 314 313 314 315 317 318 319 319
279 279 285 286 285 291 290 288 289 287 287 287 287 288 285 281 276 274 273 275 276 277 278 281 280 276 279 283 284 292 294 294 293 290 286 287 289 290 292 292 292 292 292 292 294 295 296 297 297 297 297 297 298 299 300 301 303 305 308 309 310 312 312 312 314 314 315 316 316 316 316 315 313 315 314 315 315 314 312 311 312 312 312 315 316 317
283 282 285 288 289 287 289 290 291 291 290 287 288 288 284 284 283 278 278 276 275 276 276 277 278 279 282 284 287 289 289 290 291 290 288 289 289 288 292 294 295 294 294 293 293 295 295 295 295 295 295 295 295 297 298 299 301 302 306 307 310 311 311 310 310 312 313 314 313 312 312 313 312 310 312 311 310 312 312 311 311 311 311 311 311 310
283 281 285 286 288 287 288 288 290 291 284 287 286 284 284 288 286 279 278 280 276 273 273 274 279 281 282 288 291 290 290 291 290 290 288 289 288 288 291 293 294 294 294 294 294 294 294 293 294 296 295 295 294 295 296 298 299 301 302 303 305 307 305 307 308 310 311 311 311 311 311 311 310 311 311 312 311 311 309 309 309 310 310 309 309 310
282 280 285 285 286 288 287 285 288 287 288 287 281 285 288 290 286 283 276 275 274 272 274 276 277 278 278 279 286 283 286 288 290 292 290 288 287 288 292 292 293 294 294 293 292 293 294 294 295 296 296 297 298 298 298 298 299 300 301 302 303 304 306 306 307 308 309 309 309 310 309 309 310 311 311 310 310 308 308 307 306 304 307 309 310 310
288 280 284 285 286 287 286 288 288 289 289 286 284 289 287 280 280 279 278 272 270 270 269 274 276 276 278 283 282 285 285 287 289 288 287 288 288 291 291 292 291 291 292 293 294 295 295 295 296 296 297 297 297 297 298 298 298 298 298 299 301 303 304 305 305 305 306 307 309 310 309 309 309 308 309 307 307 307 309 309 307 307 308 305 305 306
287 280 281 285 286 287 284 285 283 284 289 288 289 286 285 284 282 278 280 276 276 271 270 270 275 279 281 282 283 288 288 288 288 287 288 289 289 291 292 292 291 291 291 292 294 296 296 295 296 297 298 298 298 297 296 296 296 298 299 298 298 298 299 299 302 303 306 306 307 307 305 305 307 307 307 307 307 307 308 308 307 307 303 306 303 305
284 284 277 282 286 285 283 283 283 285 284 284 284 283 284 282 283 282 281 279 278 268 267 267 271 275 280 284 286 289 291 291 287 289 289 289 288 288 289 291 291 292 292 293 294 295 295 296 295 295 294 294 296 295 296 297 298 299 298 299 299 301 300 301 303 303 305 304 304 303 305 305 305 305 304 304 305 307 306 305 304 305 306 300 301 298
283 282 281 279 281 280 280 283 284 286 288 287 286 285 285 282 281 279 279 280 275 276 272 268 277 278 283 286 290 290 290 288 287 288 289 289 290 290 290 289 291 292 293 294 294 292 292 292 293 292 294 294 294 294 295 296 296 296 299 301 301 301 302 301 301 302 302 302 304 303 303 303 301 304 302 303 302 304 305 302 301 301 297 299 296 295
284 282 281 276 280 282 284 286 284 285 284 285 285 284 286 285 283 280 277 277 277 278 276 274 271 283 287 287 288 288 288 287 285 286 289 289 290 289 288 287 288 289 291 293 294 293 293 292 292 292 293 294 295 296 295 295 298 299 298 298 298 300 300 300 301 301 301 302 302 302 301 300 300 301 299 301 297 297 298 297 295 294 300 297 295 292
290 280 278 279 282 282 282 284 284 284 286 285 285 283 283 283 282 282 281 281 282 278 277 275 274 281 289 287 286 286 283 282 284 286 288 288 288 288 287 287 288 289 289 290 291 292 291 291 291 292 292 292 293 293 295 297 297 297 297 298 297 299 299 299 300 300 300 299 299 299 297 298 297 297 296 298 295 296 295 295 294 293 295 294 292 292
285 280 283 273 274 279 280 281 283 284 285 282 282 283 283 283 283 281 280 280 279 281 281 278 276 281 285 285 286 284 287 287 286 285 287 289 288 288 288 289 290 290 290 291 292 293 292 292 292 293 292 293 294 292 293 295 297 297 297 297 298 298 297 298 297 298 296 295 296 294 295 294 292 295 294 295 293 294 293 292 292 291 294 291 291 290
285 281 282 275 275 274 273 275 279 280 281 282 281 283 285 287 282 282 280 278 279 280 281 278 282 284 286 287 287 287 286 286 285 284 284 286 287 288 289 290 291 291 292 291 292 292 294 293 292 290 290 292 293 294 295 294 294 294 295 296 294 295 293 295 293 296 297 294 296 294 293 292 291 292 293 292 292 292 292 291 291 290 289 291 293 288
281 284 286 285 283 281 283 282 284 285 283 283 282 284 284 285 283 283 280 279 281 277 280 284 285 283 284 286 286 288 286 288 290 288 288 288 287 287 287 288 289 290 291 292 292 292 290 291 292 292 292 293 292 291 292 292 293 291 292 292 292 291 293 293 294 293 295 292 293 292 291 290 290 290 291 291 291 290 291 290 289 289 289 288 288 289
280 283 285 287 286 286 282 281 285 289 285 286 284 284 284 285 284 283 282 282 282 280 280 284 284 285 284 285 286 286 287 285 286 286 286 286 288 289 290 288 290 289 290 290 290 292 294 294 292 291 292 290 292 290 288 288 290 292 292 293 290 290 290 291 292 292 292 291 290 290 290 288 288 288 288 288 288 289 288 287 287 287 287 288 289 288
287 285 286 285 284 282 282 284 286 287 287 285 285 285 284 285 284 283 284 284 284 284 282 283 285 284 286 287 288 288 289 291 290 289 289 289 288 288 289 289 290 292 290 291 292 292 292 294 293 293 292 292 289 290 288 288 289 290 290 290 289 289 289 288 291 290 290 289 290 289 288 287 287 287 288 288 288 288 288 287 287 287 287 287 287 287
289 279 282 285 282 282 282 284 286 286 283 284 285 285 286 285 285 285 286 286 285 285 287 285 283 285 288 289 290 290 290 290 289 288 288 290 293 291 289 290 290 290 290 291 291 292 292 293 292 292 292 290 290 289 289 289 289 289 289 288 287 288 288 289 289 291 289 289 288 287 287 288 287 288 288 289 288 287 287 287 287 287 288 287 286 287
288 280 285 280 278 279 280 282 282 283 284 282 283 285 286 286 286 286 286 286 285 285 287 285 284 285 287 289 289 290 290 289 290 291 291 290 288 288 289 288 288 289 290 290 291 292 291 291 290 289 289 289 288 288 289 288 287 287 287 287 288 288 287 289 289 289 289 288 287 287 288 289 288 288 288 287 287 287 288 288 287 287 287 287 286 286
284 277 282 281 278 275 278 279 279 278 280 281 282 283 284 284 283 285 284 286 284 285 285 284 284 285 287 289 289 289 289 290 291 291 289 289 287 287 288 289 288 289 289 290 291 291 290 289 289 290 289 288 287 287 288 288 287 288 288 287 288 287 287 289 289 289 288 287 287 288 288 287 288 288 287 287 287 287 286 287 287 287 287 287 287 286
282 281 279 277 279 273 276 278 277 278 279 277 281 284 285 285 286 287 287 287 288 289 285 283 285 288 285 287 288 288 289 290 290 289 289 289 288 287 288 289 290 290 290 290 290 289 288 288 289 289 288 285 287 289 287 288 289 288 287 287 286 287 288 288 288 288 287 287 287 286 286 287 287 287 286 286 286 286 287 287 287 286 287 286 285 285
286 286 282 283 279 273 273 277 277 278 271 279 287 288 287 286 285 284 285 287 288 288 288 289 290 287 286 287 289 289 289 290 292 293 292 293 292 291 289 288 289 290 290 289 288 288 287 287 285 284 283 284 284 285 285 286 287 286 286 286 286 287 287 287 287 286 286 286 286 286 286 286 286 286 285 285 286 286 286 286 285 284 283 284 285 286
287 285 279 277 277 273 271 276 277 270 277 284 280 287 289 289 288 288 289 288 289 288 288 288 290 286 288 288 289 290 291 290 288 290 291 290 290 291 292 291 290 290 291 289 286 284 284 286 284 285 285 285 285 285 286 286 286 286 286 286 286 286 286 286 285 285 285 284 284 285 285 285 285 285 285 285 285 285 284 284 284 284 284 284 285 286
284 284 277 272 272 272 271 277 272 276 280 282 283 285 286 288 286 286 285 286 286 288 290 289 291 289 289 289 288 288 288 289 287 286 287 287 288 292 290 291 292 288 288 285 283 283 283 285 286 285 285 284 286 286 286 285 285 284 284 284 284 284 284 284 283 283 283 283 283 283 284 284 284 284 284 284 284 284 283 283 283 283 283 283 283 283
288 284 283 276 273 275 273 277 279 278 280 284 282 283 286 283 283 285 282 286 290 289 289 289 290 290 289 289 288 287 286 287 288 289 286 287 289 285 287 286 283 281 282 281 281 282 282 283 285 285 285 285 285 285 284 284 284 284 283 283 283 283 283 283 282 282 282 282 282 282 283 283 283 283 283 283 283 283 282 282 282 283 282 283 283 283
287 287 281 283 273 273 275 270 270 273 275 281 282 284 289 290 290 290 287 286 288 290 290 290 289 290 290 290 287 285 285 287 285 285 288 290 284 283 282 282 281 281 281 282 282 282 283 283 283 283 284 283 283 282 283 283 283 282 282 281 281 281 281 281 281 281 281 281 281 282 282 282 283 283 282 282 282 282 282 282 282 282 282 283 282 282
281 283 286 285 276 273 273 275 273 273 278 281 284 287 289 289 290 286 281 283 284 288 290 290 291 291 291 290 285 285 287 284 285 286 290 284 281 281 280 280 280 281 280 281 281 281 281 282 282 282 282 282 281 281 281 281 281 281 280 280 280 280 280 280 280 280 281 281 281 281 281 282 282 282 282 282 281 281 281 281 281 281 281 282 282 282
281 278 280 276 273 276 276 273 275 273 275 281 282 284 285 287 290 288 275 276 285 288 290 290 290 291 290 287 285 287 286 282 285 289 282 279 280 279 280 280 280 279 279 279 279 280 280 281 281 280 280 279 279 279 279 280 280 279 279 279 279 279 279 279 279 280 280 281 281 281 281 281 281 281 281 281 281 281 281 281 281 281 282 282 282 283
277 276 278 281 277 277 281 274 270 275 281 279 282 282 284 289 289 281 276 282 280 283 284 288 289 290 288 285 286 285 288 289 288 282 278 280 280 279 278 279 279 279 279 278 278 279 278 278 278 277 277 277 278 278 278 279 279 278 278 278 278 277 278 279 279 279 279 279 279 279 279 280 280 280 280 280 280 281 280 281 281 281 281 281 281 281
274 275 272 274 277 279 278 277 277 274 279 285 281 286 288 288 275 279 284 280 284 284 282 287 288 288 286 287 287 289 283 278 280 280 280 279 280 279 278 278 278 277 277 278 278 277 277 277 276 276 275 275 276 277 278 278 277 277 276 276 276 276 277 278 278 278 278 278 277 277 277 278 278 278 278 279 279 279 279 279 279 279 279 279 280 280
281 280 277 279 273 269 269 275 271 275 278 286 286 284 286 286 283 284 282 283 280 281 284 283 286 284 286 285 284 282 280 280 279 280 279 279 279 279 278 278 278 277 277 276 276 276 276 275 274 273 273 273 274 275 276 276 275 275 274 274 274 274 275 276 276 276 276 275 275 275 275 275 275 275 276 276 276 277 277 277 277 277 278 278 278 278
283 280 274 278 281 279 277 276 277 281 285 289 290 287 288 285 283 286 288 289 284 281 283 284 284 283 284 286 281 280 280 280 279 278 279 278 278 278 277 277 277 276 275 275 275 274 274 273 272 271 271 271 271 272 273 275 274 273 272 271 272 273 273 274 274 273 273 273 272 272 273 273 273 273 273 274 275 275 275 275 276 276 276 277 277 277
285 284 283 282 279 280 281 283 282 285 289 291 289 290 293 288 282 285 288 289 288 284 281 284 285 282 282 283 282 282 280 280 280 280 279 278 278 277 277 277 276 276 275 274 274 274 273 272 271 270 269 269 269 270 271 271 273 272 271 270 271 270 272 272 271 272 271 271 271 271 271 271 272 272 273 273 273 274 274 274 274 275 275 276 277 277
285 284 283 286 282 284 284 284 283 280 285 288 281 281 287 285 281 281 283 287 284 284 284 287 284 283 282 284 283 280 282 281 279 279 278 278 278 277 277 276 275 274 274 273 272 272 271 271 270 269 268 268 268 268 268 269 269 270 269 269 269 270 271 271 270 270 269 269 269 269 269 271 271 271 272 272 273 273 273 274 274 275 275 276 277 277
283 281 283 282 282 283 282 282 284 285 285 288 285 281 281 281 281 281 284 285 285 283 282 283 284 283 284 284 286 284 281 280 280 278 278 278 277 277 276 276 275 274 273 273 273 271 271 270 270 269 268 267 267 267 267 266 266 267 267 267 269 269 269 269 270 270 269 269 269 268 270 271 271 271 272 272 273 274 274 274 274 275 276 277 277 277
283 282 285 276 281 284 282 283 284 283 287 286 283 285 286 284 281 280 280 282 283 282 282 283 282 282 282 283 283 283 281 280 280 278 278 277 277 276 276 275 275 274 273 273 272 271 270 270 270 268 267 266 266 266 265 265 265 265 265 266 266 267 268 269 269 269 268 268 269 269 270 272 273 272 272 273 273 274 274 275 275 275 276 276 276 276
284 286 283 280 282 280 281 281 281 284 284 284 283 281 284 286 283 280 282 282 281 283 281 279 278 282 282 284 282 282 280 280 280 279 278 277 277 276 276 275 275 274 273 272 270 270 270 269 268 268 267 266 265 265 264 263 264 264 265 265 264 265 268 269 269 269 268 269 270 270 271 271 271 272 272 273 273 274 275 275 275 275 276 278 278 278
285 285 281 282 280 281 284 282 285 284 281 284 285 288 284 281 282 282 280 281 281 282 281 282 279 277 278 281 282 282 282 280 279 279 278 277 277 276 275 274 274 273 272 272 271 270 269 268 267 266 265 265 265 264 263 263 263 264 264 264 264 265 268 268 269 268 268 269 270 270 271 271 271 271 272 272 273 274 276 278 279 278 276 277 280 281
287 284 283 284 284 284 283 287 288 289 289 289 291 286 281 281 282 283 283 283 281 281 282 283 281 280 279 278 278 281 281 280 279 278 277 276 276 276 276 274 273 272 271 271 270 268 268 267 266 266 265 264 264 263 263 263 263 263 263 264 265 265 266 267 268 268 268 269 269 270 270 270 271 271 271 271 271 271 272 273 276 280 280 280 279 279
Wind_Speed
6 9 13 16 12 11 6 7 6 9 2 0 4 6 9 5 4 3 3 1 1 2 7 8 10 11 9 7 5 3 0 2 4 7 7 6 7 8 9 11 13 12 16 12 10 10 13 15 14 13 11 12 11 12 12 12 12 13 14 12 14 12 11 10 10 9 10 10 8 7 11 12 9 9 8 8 8 8 8 8 7 8 8 8 8 8
8 9 12 11 9 8 5 6 8 9 4 2 0 3 7 7 9 4 2 0 0 5 3 3 5 9 9 8 6 1 3 7 10 10 8 9 9 9 11 12 12 15 6 2 5 6 8 10 10 10 10 10 12 12 12 13 14 14 14 14 14 10 11 12 13 11 11 11 12 11 11 10 9 8 9 10 8 9 7 8 8 8 8 9 9 8
11 17 10 8 6 5 4 6 8 7 5 3 3 2 4 6 2 3 2 2 0 3 7 1 5 11 11 10 3 4 7 7 10 11 13 13 11 10 11 12 12 7 9 8 9 8 9 11 11 10 10 11 15 15 16 15 14 13 13 12 13 12 13 13 13 12 13 11 10 11 8 9 5 6 8 8 7 6 7 8 9 9 9 9 9 9
8 11 10 7 7 7 6 5 6 6 4 5 2 3 4 4 6 4 3 1 1 2 1 1 2 8 6 4 7 8 8 7 10 11 12 9 12 13 15 15 13 13 13 12 13 13 12 12 11 10 11 13 11 11 11 12 15 13 13 12 13 13 13 13 13 13 13 12 9 7 5 5 8 6 5 5 5 7 8 10 9 9 10 10 9 9
6 4 5 10 9 10 9 8 7 6 5 3 5 4 2 2 6 5 4 1 1 1 2 1 4 7 4 5 5 6 9 6 6 5 7 7 8 10 5 4 9 15 15 15 13 11 10 11 13 15 14 11 12 14 14 15 14 12 15 15 15 13 14 12 13 14 11 7 5 5 2 3 3 1 5 7 8 9 10 9 10 11 8 8 9 9
7 5 8 10 9 11 9 9 9 5 5 3 5 8 7 4 5 0 2 5 1 3 1 2 1 5 3 5 9 8 1 5 7 5 9 11 11 8 9 13 12 12 11 14 16 16 15 15 14 11 12 14 15 15 15 14 14 13 12 13 13 11 11 12 13 14 11 11 11 9 9 9 9 9 9 12 15 12 11 14 9 7 9 9 8 8
7 2 12 12 11 10 12 9 6 6 5 4 5 7 4 6 5 6 5 3 1 3 2 1 8 5 5 2 4 4 2 9 4 5 11 10 10 9 12 14 13 13 12 9 8 7 8 12 11 13 15 16 15 16 11 11 13 13 12 13 14 13 11 12 12 12 11 10 11 14 15 14 14 14 12 10 7 9 9 6 7 9 8 9 9 8
5 5 9 10 11 12 10 12 9 8 5 5 2 5 4 5 6 6 6 4 1 0 1 3 2 3 5 7 5 0 3 7 8 8 10 10 11 12 13 14 13 12 10 11 14 12 12 13 15 17 18 15 18 14 10 13 11 14 15 12 13 11 11 11 10 12 13 13 13 13 13 13 13 14 13 10 7 5 5 7 8 7 8 8 9 9
11 6 10 11 10 10 13 9 5 8 6 2 4 8 7 7 6 7 5 4 0 0 5 1 1 1 4 7 5 1 3 5 7 8 9 12 12 12 12 12 12 12 12 13 13 14 15 15 15 14 13 16 14 11 13 13 13 12 11 12 10 12 11 9 10 12 13 13 13 13 12 12 12 11 9 4 5 5 5 8 7 8 7 7 8 8
1 8 13 12 9 11 5 7 8 10 7 3 4 4 5 6 5 4 3 4 0 2 6 4 2 3 7 6 5 2 1 5 7 10 10 9 10 11 12 14 14 11 9 9 12 12 12 12 13 13 10 7 12 11 9 8 7 8 8 9 10 12 10 10 10 11 12 13 11 12 12 14 12 8 5 5 6 6 6 9 9 8 8 7 7 8
1 4 0 5 9 6 8 3 5 11 6 5 7 6 4 6 3 2 5 2 2 4 7 7 5 4 5 5 7 5 5 8 9 7 7 7 6 8 8 9 8 8 8 9 10 10 9 6 6 6 10 11 7 6 6 8 8 7 8 10 11 12 9 9 11 11 13 12 12 13 13 14 13 11 8 7 7 7 7 9 9 9 8 6 8 7
2 1 3 1 2 3 4 5 1 1 3 10 2 3 6 2 5 3 2 3 3 7 4 2 4 4 7 3 6 8 4 3 6 7 9 9 7 7 6 8 9 8 8 8 8 10 9 6 6 6 9 8 7 5 8 7 6 7 8 8 11 10 11 9 10 11 13 12 13 12 12 13 13 11 10 12 12 10 10 10 9 6 5 7 7 7
1 2 2 1 3 6 4 6 1 2 2 4 7 8 8 3 2 4 0 4 6 6 1 1 1 1 8 7 7 6 7 8 7 9 10 7 7 6 7 8 6 5 6 8 9 9 7 9 10 9 9 6 7 11 10 10 9 9 9 11 12 14 11 11 11 13 13 12 13 14 14 13 10 11 11 11 11 8 9 9 8 7 8 6 6 8
3 2 2 3 3 3 4 11 4 5 4 6 11 8 8 4 5 7 3 1 3 5 4 1 1 4 3 6 13 16 17 14 12 8 8 8 9 8 7 7 4 4 5 7 7 7 8 9 8 9 9 10 10 10 11 10 9 9 9 10 13 15 11 10 10 12 12 14 14 12 12 11 9 10 10 10 10 8 8 7 9 9 9 8 9 7
8 4 8 6 5 0 1 1 8 6 5 6 4 11 8 6 5 8 5 9 8 6 1 3 2 6 5 5 4 10 10 10 8 5 5 6 7 7 6 6 6 5 5 4 5 7 9 10 8 8 8 7 8 8 8 8 9 8 9 10 12 12 11 11 12 11 13 12 11 10 9 8 7 9 9 9 8 8 8 7 8 7 6 8 7 8
13 2 2 2 0 1 5 1 1 8 4 3 2 5 7 10 5 4 5 3 3 2 0 1 6 4 5 3 8 6 7 6 7 8 4 6 5 3 4 5 6 6 5 4 5 6 6 5 4 4 5 4 4 5 6 7 8 9 11 10 12 14 11 10 10 10 10 10 8 7 8 9 8 7 6 6 6 6 7 7 7 7 7 6 5 5
4 7 1 6 1 1 1 0 1 3 9 4 5 8 5 3 7 3 3 0 4 3 7 1 5 5 8 8 9 4 1 7 6 6 5 6 5 3 5 6 6 6 5 6 6 6 5 4 5 4 4 4 4 3 5 6 6 8 8 8 9 8 6 8 9 9 8 8 8 9 9 8 8 9 9 9 8 8 6 5 6 6 6 5 5 6
10 3 2 3 1 1 0 0 1 2 2 7 4 8 2 2 4 6 6 1 1 5 6 2 6 4 1 5 4 2 2 4 5 10 5 3 3 5 8 7 8 7 7 6 5 6 6 5 5 4 4 4 6 7 6 8 7 7 7 8 9 8 10 8 8 9 9 9 10 9 9 8 9 9 8 7 7 6 6 5 5 4 5 6 6 6
7 4 0 1 1 4 2 0 2 1 0 3 6 2 9 5 5 2 3 3 3 4 3 2 2 4 6 7 2 4 3 5 7 4 5 6 5 7 8 9 7 6 7 8 7 6 7 6 5 5 6 5 5 5 6 5 4 4 5 5 6 9 8 7 7 6 6 7 7 7 9 8 7 6 5 5 5 5 6 7 6 6 6 4 4 5
1 7 2 1 2 1 1 3 10 4 1 0 1 1 1 2 2 4 7 4 5 5 1 7 1 9 7 7 6 9 6 8 7 4 6 7 6 7 7 7 6 5 5 6 6 5 5 4 5 6 6 6 7 5 5 4 4 5 5 5 5 4 4 4 5 6 7 7 6 5 4 4 5 5 5 5 6 6 6 6 5 5 5 6 4 5
2 3 6 1 1 2 4 2 7 8 7 1 2 4 0 0 2 3 1 4 5 4 3 2 5 7 7 8 7 9 10 12 5 4 6 4 5 6 6 6 4 4 5 6 5 5 4 4 5 5 4 3 1 1 3 4 6 6 5 6 6 7 6 6 6 6 6 5 5 4 5 5 5 5 4 4 5 5 5 5 5 5 5 4 5 5
3 2 9 2 2 6 5 2 3 7 7 8 9 10 10 7 5 7 10 3 2 2 5 2 12 6 7 4 11 13 10 7 7 6 7 3 3 3 4 4 4 5 4 5 5 5 5 5 4 3 1 1 2 3 4 4 4 5 6 7 6 5 6 5 4 4 4 4 4 5 5 5 4 5 4 5 5 5 5 5 5 5 4 5 4 5
6 3 9 5 6 7 3 2 2 2 2 1 1 5 6 3 5 5 8 4 1 4 5 3 1 16 8 9 9 8 8 7 6 5 5 4 4 5 5 5 6 5 5 5 5 5 5 4 4 3 4 4 4 4 4 4 4 5 5 4 4 4 5 4 4 4 4 5 5 5 5 4 5 5 5 5 5 5 5 4 4 4 5 4 4 3
8 4 6 2 1 2 3 1 1 0 1 1 2 0 3 7 3 5 4 7 8 3 2 2 4 6 8 8 7 7 2 2 1 2 5 5 5 5 5 6 6 6 5 5 4 4 3 2 1 1 2 3 3 4 4 5 4 4 4 4 4 4 4 4 4 4 5 4 5 5 5 5 4 5 5 5 4 4 4 3 4 3 4 4 4 4
6 2 9 4 3 2 4 4 3 1 1 2 2 3 2 1 1 1 3 1 3 9 9 7 15 7 3 2 1 2 0 2 3 4 5 7 5 4 4 4 5 5 5 5 4 3 2 0 2 4 4 4 5 4 4 4 4 4 4 4 4 4 4 4 4 4 4 5 5 4 4 4 4 4 4 4 3 4 3 4 4 3 4 4 3 3
1 4 7 8 11 13 12 15 18 14 8 1 1 3 5 9 6 5 5 3 9 5 11 7 14 1 1 1 3 2 0 5 6 5 4 5 4 4 4 4 5 4 5 5 5 4 4 4 3 3 4 4 5 6 5 4 4 4 4 5 4 4 4 4 4 5 5 4 5 4 4 3 3 4 4 4 4 4 4 4 4 4 2 3 4 3
3 4 8 11 13 14 15 1 5 14 5 11 7 7 5 4 5 4 3 5 16 5 9 17 12 2 2 4 3 6 5 8 7 2 2 3 3 4 4 5 5 5 4 5 4 4 4 5 5 5 5 6 5 5 4 4 4 4 4 4 4 4 5 5 5 4 4 4 5 4 4 4 4 4 4 4 4 4 3 3 3 3 3 3 4 4
5 5 11 14 15 9 4 4 7 16 15 13 10 11 9 9 10 10 12 16 7 9 16 5 4 9 6 3 7 7 6 5 4 5 4 4 4 5 4 4 5 4 5 5 5 5 6 6 5 5 6 5 6 4 4 4 4 4 5 5 4 3 4 4 4 4 4 4 4 4 4 4 4 4 4 3 3 4 4 4 4 4 3 3 4 4
9 12 11 8 6 3 5 11 12 11 12 11 13 12 13 14 11 17 20 3 8 11 16 8 9 9 6 7 7 9 8 9 7 4 5 8 5 5 5 5 5 5 4 4 5 4 5 6 6 6 6 6 5 5 4 3 3 1 1 1 1 3 3 4 5 4 4 4 4 4 4 4 3 4 5 4 4 4 4 5 5 5 5 5 5 5
8 4 5 9 5 3 2 10 10 13 5 7 12 14 17 16 19 20 15 8 10 12 14 6 6 11 6 10 8 7 4 1 2 3 3 5 7 8 5 3 3 3 4 4 5 5 5 6 6 7 6 5 4 3 3 3 2 2 3 2 2 3 2 4 4 5 4 4 4 3 4 5 4 5 5 5 5 5 5 5 5 5 6 5 5 5
7 4 7 5 4 2 2 1 4 8 11 8 10 14 19 20 19 18 14 12 11 12 14 8 9 18 3 6 6 8 6 3 5 6 6 5 4 3 3 4 5 5 5 5 6 7 6 5 6 5 5 4 2 3 3 3 3 4 4 4 4 4 2 4 6 5 5 5 3 4 4 5 5 5 6 5 6 5 6 5 5 6 6 5 5 5
4 1 1 6 6 2 1 5 3 2 2 7 11 17 19 18 15 12 10 7 7 17 10 8 15 18 2 1 1 1 3 6 9 8 5 5 4 1 3 5 5 7 6 7 6 6 6 5 6 6 5 2 3 4 5 5 4 5 4 4 5 4 4 6 6 7 6 5 4 4 6 5 6 7 6 6 6 5 5 5 6 6 5 5 5 4
5 6 6 5 8 4 2 5 8 5 2 4 14 24 20 11 14 9 11 12 18 15 11 15 21 3 4 5 6 6 9 9 8 6 5 5 3 3 4 6 8 7 8 7 7 5 4 6 6 4 2 3 4 5 4 6 7 6 4 6 4 5 8 7 7 7 7 5 6 5 5 5 7 6 6 6 5 5 6 7 6 5 5 5 3 4
10 11 8 8 9 6 5 7 4 7 3 18 8 6 16 19 13 9 14 16 14 9 15 10 9 4 6 6 8 9 9 8 10 9 6 5 5 6 6 6 8 8 6 6 2 3 4 2 1 3 3 4 4 4 4 4 7 6 5 6 5 8 7 8 7 8 7 6 6 5 5 6 7 7 6 5 7 7 7 7 6 4 3 4 4 5
11 8 6 1 6 6 2 7 7 6 17 5 5 5 15 13 16 23 20 15 15 14 11 12 15 5 7 9 10 9 9 7 4 5 6 8 7 7 8 8 7 8 9 3 1 1 2 2 5 5 6 5 6 5 8 7 6 6 7 6 8 7 8 7 8 7 6 6 5 5 5 6 6 7 7 7 7 7 6 6 5 5 4 5 5 6
11 10 6 4 4 5 3 8 8 19 5 2 2 0 3 9 9 8 7 8 8 14 19 20 20 8 8 8 5 5 7 7 3 5 5 4 5 8 8 9 7 5 4 1 2 0 1 5 6 7 7 4 6 6 7 7 6 8 7 6 8 7 7 8 8 7 6 6 5 5 5 7 8 8 7 7 7 7 6 6 5 5 4 5 5 5
14 7 9 3 1 8 6 11 12 4 7 6 2 2 9 8 8 11 9 17 19 14 12 14 15 8 9 9 8 6 2 1 1 5 3 7 6 2 1 1 1 3 4 2 2 3 2 4 6 6 6 6 6 7 7 6 7 9 8 8 6 7 7 8 8 7 6 6 5 6 6 7 8 7 7 6 7 7 6 6 5 5 3 7 6 6
7 14 5 11 3 6 8 2 3 5 11 11 2 5 6 9 13 12 10 15 5 10 12 13 14 15 13 12 5 2 3 3 5 5 8 7 3 5 5 5 4 4 4 5 4 5 5 5 6 5 8 9 8 5 5 5 7 9 9 8 6 7 7 8 8 6 6 6 5 5 5 5 7 7 7 7 7 7 6 5 4 5 3 5 5 6
6 3 10 12 5 4 5 9 9 10 11 2 9 10 10 8 12 7 4 15 3 10 11 16 18 15 13 12 5 7 5 7 7 7 11 3 4 4 7 4 4 4 4 4 4 7 6 6 6 7 7 8 9 5 4 5 7 9 9 7 7 7 8 7 6 6 7 6 5 5 5 5 6 6 7 8 7 6 6 5 5 4 4 4 5 5
6 3 5 5 6 7 8 6 11 5 2 4 7 6 7 7 12 10 4 10 7 14 15 13 13 13 12 6 8 8 9 8 8 11 1 5 4 3 3 6 5 5 6 5 5 4 5 5 8 9 9 8 6 4 5 5 9 10 8 7 6 8 8 6 5 5 6 6 6 5 6 5 6 6 7 8 7 6 6 4 5 4 5 5 5 6
4 0 4 13 7 5 8 6 3 6 4 4 6 5 6 7 10 9 13 7 2 3 5 9 10 11 8 6 9 7 12 7 3 3 7 5 9 7 5 4 4 4 5 5 5 4 7 7 8 8 7 5 4 4 4 6 10 9 7 7 9 8 6 4 5 5 5 6 6 6 6 5 6 7 7 6 6 6 5 4 5 4 5 6 6 6
1 5 1 5 8 12 10 8 10 4 7 9 0 11 11 8 2 11 8 3 7 6 5 9 9 10 6 11 11 8 2 3 5 4 5 4 7 7 5 6 6 6 4 4 4 5 8 8 8 8 8 5 5 4 4 8 12 8 7 8 8 5 3 4 5 5 6 6 7 6 6 6 6 6 6 5 5 7 7 5 5 5 5 6 6 8
13 10 10 10 3 5 3 5 1 12 4 10 11 2 5 8 10 7 3 1 3 4 7 5 9 5 7 5 4 5 6 3 4 4 5 5 7 8 7 6 6 7 6 5 5 3 6 9 8 7 6 5 5 4 3 8 11 8 6 9 5 3 4 4 5 5 6 6 7 7 7 6 6 6 5 5 5 6 8 5 6 6 6 6 7 9
5 8 3 5 7 12 11 11 11 6 9 14 20 14 12 6 4 10 8 7 3 3 6 5 5 6 7 9 9 5 5 8 4 5 6 5 5 5 4 4 4 5 5 4 4 5 6 9 8 8 6 5 5 5 3 7 11 7 8 6 2 3 5 5 5 5 6 6 6 6 6 6 6 6 5 5 5 7 8 7 7 7 6 6 7 7
10 10 6 13 6 8 10 12 3 5 14 15 7 6 13 7 4 7 8 8 7 6 4 4 5 4 5 9 9 10 6 4 6 7 8 8 7 7 7 6 6 6 6 7 6 4 4 9 10 8 8 6 6 5 5 3 11 10 9 3 3 4 5 5 5 6 7 6 6 6 5 6 6 6 6 5 5 8 7 7 6 8 5 7 7 7
2 4 3 7 6 4 5 1 2 1 5 8 2 1 5 5 2 3 5 6 4 5 9 8 6 6 7 9 12 3 6 9 9 6 5 7 7 5 5 6 5 5 5 6 6 6 7 7 8 8 9 7 6 6 4 5 4 11 6 3 3 3 4 5 6 7 7 6 5 5 4 8 7 7 6 6 6 7 6 6 6 7 5 7 7 7
3 3 2 5 1 7 11 2 5 5 6 11 3 2 2 3 3 3 4 3 6 7 5 2 8 8 10 9 10 11 9 9 9 6 6 7 7 7 7 7 7 6 8 8 7 8 8 7 9 8 8 8 5 5 5 5 6 5 4 4 3 4 5 5 7 7 6 6 6 4 5 6 6 6 6 5 6 6 6 6 6 7 7 6 6 6
3 4 5 3 7 13 7 7 4 2 6 4 4 5 6 4 2 1 1 3 5 4 4 5 5 7 5 7 7 12 11 9 11 10 9 8 8 8 8 8 9 7 4 5 7 5 5 6 8 9 8 8 5 4 4 5 5 4 4 3 4 4 5 6 5 7 6 6 5 5 5 6 6 7 7 6 6 7 7 6 5 7 7 6 5 5
6 10 7 7 7 2 3 1 1 5 3 1 4 4 4 7 7 4 5 7 6 8 6 3 2 4 6 7 8 10 11 10 8 11 12 9 8 8 8 8 7 7 8 7 4 4 6 6 8 7 8 7 5 4 4 5 4 4 5 4 3 4 6 7 6 6 6 5 6 6 4 5 5 6 6 7 7 7 7 6 6 6 6 4 2 4
9 12 3 7 6 8 11 6 8 9 4 3 7 11 8 5 7 8 5 5 5 8 6 7 2 1 2 5 10 11 12 11 8 9 10 10 9 9 9 8 8 8 7 5 5 6 6 6 8 9 8 6 4 4 4 4 4 3 3 3 3 3 6 6 6 6 6 5 5 5 5 6 6 5 6 6 6 7 8 11 12 8 6 6 12 16
12 10 10 11 11 11 6 12 12 10 10 13 16 8 7 7 9 11 10 9 6 5 7 9 7 3 4 3 3 6 8 11 11 8 8 8 8 7 8 10 11 9 8 8 9 8 8 7 7 8 8 7 5 5 4 4 3 4 3 3 3 3 4 4 6 6 5 5 5 5 5 5 6 5 6 5 6 6 6 6 8 15 16 15 14 14
Wind_Direction
160 174 187 199 198 201 192 180 176 239 179 340 174 167 223 226 271 277 264 257 165 109 219 206 227 237 253 257 257 256 56 210 240 239 229 226 220 216 216 215 217 218 224 219 211 205 205 207 208 207 203 204 202 201 194 193 196 194 191 188 197 196 186 183 187 188 185 187 191 199 202 210 204 205 203 211 213 209 211 206 205 204 205 204 203 201
178 198 209 196 193 191 189 176 200 223 228 247 79 174 213 210 230 233 222 12 288 163 267 233 250 260 257 266 258 249 167 230 220 227 234 227 220 220 218 224 223 224 247 258 234 226 220 221 216 209 207 202 203 211 200 195 197 197 195 193 196 189 191 194 193 191 194 197 196 195 205 200 198 199 203 212 211 212 206 206 207 207 206 204 203 200
192 208 190 184 172 179 199 194 212 207 218 192 209 200 214 245 260 297 288 294 315 156 256 158 204 251 249 250 251 185 202 227 222 211 217 211 216 219 222 227 230 237 237 226 230 218 213 213 210 204 207 209 209 206 205 202 198 200 199 198 195 193 193 199 196 191 200 201 200 196 199 192 197 211 210 215 211 205 208 209 208 207 207 205 206 200
195 221 186 167 164 187 221 234 230 231 207 194 159 124 201 232 165 255 278 147 3 129 260 170 226 274 286 274 243 225 202 233 228 218 227 212 214 215 217 212 214 222 227 225 221 216 212 208 206 204 207 209 207 211 211 209 206 202 202 198 197 197 197 197 198 200 203 200 198 204 186 183 178 191 197 208 207 205 209 217 209 211 204 203 204 199
179 118 153 164 184 197 207 223 229 222 236 209 185 189 210 175 218 160 208 105 6 26 79 77 356 301 281 262 281 255 228 255 258 246 253 251 240 237 259 264 228 221 216 222 223 222 214 211 210 206 207 201 206 209 207 204 205 204 203 200 199 198 198 198 197 200 196 180 178 177 126 127 142 79 173 203 218 210 210 214 212 214 197 201 201 198
224 210 145 168 185 198 210 225 229 174 221 252 222 190 199 188 166 145 125 109 37 286 314 169 332 290 293 267 236 261 12 239 246 237 246 237 237 232 232 231 229 230 225 219 217 211 208 209 213 212 207 206 212 211 210 204 206 204 202 202 204 201 199 199 198 195 186 187 186 177 185 192 200 206 197 204 207 205 205 212 211 205 202 201 203 200
187 221 166 181 181 195 206 220 227 170 202 196 253 188 194 140 122 132 136 91 135 184 286 48 186 264 324 297 250 280 283 256 259 213 245 242 245 229 227 230 227 223 226 235 243 236 220 221 213 214 210 212 212 217 205 205 208 207 204 202 202 201 200 200 197 189 187 191 195 196 201 203 203 209 217 218 212 209 214 208 205 207 202 206 204 205
165 171 181 177 184 189 199 211 220 179 175 232 241 157 129 110 132 175 154 161 189 232 328 45 126 187 287 288 262 274 286 277 290 266 254 248 237 230 228 229 228 225 220 218 223 221 218 215 208 211 212 210 215 211 199 209 206 206 207 200 201 202 203 201 195 190 192 195 199 202 207 208 210 211 218 206 206 195 192 202 209 200 204 203 206 205
157 180 180 181 184 188 205 202 189 179 183 214 184 158 168 173 186 158 144 159 193 97 265 321 275 219 255 267 304 322 310 303 280 255 252 248 240 239 237 235 233 226 219 212 217 219 217 213 216 220 215 216 216 206 206 207 206 206 205 204 202 206 202 201 194 194 198 202 201 204 206 212 218 216 218 186 175 185 186 202 206 206 206 204 206 206
297 171 191 175 171 201 188 189 187 172 195 254 116 91 79 67 68 119 102 111 6 110 251 239 202 205 277 272 320 331 255 270 266 268 258 240 238 234 229 234 231 227 226 228 229 228 224 220 219 217 222 222 218 212 212 213 205 208 203 206 203 210 202 198 199 198 201 204 202 206 209 213 215 210 204 181 188 191 187 206 210 209 208 206 206 210
174 337 196 142 190 183 173 187 175 182 185 128 115 79 65 50 51 28 75 113 103 247 250 230 230 174 274 254 213 204 220 203 234 269 278 277 269 256 247 248 247 239 230 229 234 239 239 241 243 227 219 222 218 212 205 207 204 196 198 203 208 212 201 200 203 198 204 202 205 210 210 213 214 206 197 193 204 194 193 210 212 208 211 202 208 200
16 37 130 229 75 67 114 116 6 209 188 140 89 125 82 354 20 27 335 45 196 258 263 247 215 182 208 288 275 233 258 227 212 235 261 278 271 264 256 243 236 227 223 225 229 241 238 259 249 219 228 223 214 198 209 210 200 199 200 197 210 212 206 200 202 202 207 204 210 215 213 215 214 203 201 205 209 200 202 209 215 206 201 210 205 201
127 185 251 21 239 147 140 119 17 68 195 106 113 118 154 221 55 237 17 244 224 216 241 8 166 324 251 227 242 257 249 255 217 216 229 243 270 282 281 268 255 247 238 222 223 228 228 222 220 216 224 211 206 206 203 203 199 201 201 201 205 214 205 202 199 205 206 206 211 212 214 218 210 208 207 209 212 201 203 203 207 196 208 201 204 206
267 290 342 292 10 209 159 163 188 135 214 135 158 153 161 161 174 213 243 325 319 287 272 261 294 265 247 283 246 242 250 242 243 228 243 248 260 271 276 278 280 268 228 228 227 226 224 221 218 215 212 209 209 205 200 198 197 200 204 205 208 218 205 205 203 207 207 212 212 211 214 213 201 208 205 209 208 203 203 196 201 201 204 205 212 206
154 200 241 156 198 289 164 171 167 156 142 205 121 163 182 145 165 198 179 198 214 207 298 271 102 232 135 241 234 241 249 272 277 258 237 249 266 279 278 282 288 287 265 234 225 221 219 221 214 213 211 213 211 204 199 195 201 195 205 204 212 218 213 205 208 206 212 214 211 211 210 205 196 203 201 206 203 200 199 198 198 202 198 207 210 210
198 176 297 326 228 89 163 273 118 119 140 211 174 84 152 210 129 175 208 147 184 191 283 214 209 189 178 248 282 233 264 273 273 280 255 278 291 314 322 284 259 256 265 263 256 257 250 241 237 237 229 223 216 210 202 201 196 198 206 204 210 213 210 207 208 212 211 212 208 205 203 206 200 199 197 201 203 207 200 197 195 199 199 204 196 200
121 193 322 315 82 79 165 182 239 168 184 210 112 200 213 146 115 97 47 129 100 51 250 170 310 293 299 317 286 309 295 285 292 269 278 276 266 307 281 264 263 265 268 266 253 253 265 273 254 229 221 215 209 210 212 213 207 208 204 205 212 217 211 207 207 208 203 205 200 208 204 199 198 196 199 200 200 202 195 190 198 198 202 197 198 200
148 185 351 79 162 7 100 131 265 34 153 115 189 219 142 101 114 146 205 358 161 195 256 88 218 292 9 263 316 345 354 290 273 269 274 258 275 268 252 257 251 251 253 262 265 261 254 248 250 247 234 221 213 208 205 210 205 203 203 202 205 206 209 209 200 203 201 200 203 202 201 199 199 199 202 197 196 185 182 199 197 193 200 210 206 199
126 79 293 332 161 267 4 56 73 325 135 154 192 210 144 218 228 292 121 223 174 238 268 292 262 260 191 237 345 273 255 270 270 285 322 282 239 237 249 258 267 267 277 267 262 262 261 251 244 228 226 225 221 221 220 223 210 213 216 213 208 211 211 204 200 200 204 199 201 197 198 195 195 196 196 194 182 174 191 201 197 200 210 207 201 202
71 133 291 319 136 248 19 105 194 199 357 149 56 73 90 110 190 145 203 167 123 242 129 286 45 239 201 212 217 268 254 237 240 301 258 256 234 220 236 257 268 279 270 279 275 260 258 260 237 222 216 217 217 215 215 206 197 215 216 208 218 224 211 199 199 195 201 202 196 196 183 193 189 188 186 184 178 188 200 203 198 207 208 213 194 207
137 111 157 263 279 90 181 193 205 158 159 187 127 206 255 3 232 111 91 145 181 183 181 206 282 259 246 211 181 216 243 265 225 228 267 251 238 236 240 250 273 279 285 280 268 271 270 253 246 240 242 250 249 205 185 187 198 206 199 210 207 204 207 206 205 195 207 182 193 178 188 187 180 187 178 178 188 192 200 204 203 204 211 183 205 194
120 160 156 141 98 200 241 246 176 185 187 186 173 195 180 127 133 173 241 48 113 154 234 145 255 259 260 177 198 209 231 231 232 204 244 270 267 265 286 287 257 279 280 273 275 258 260 267 265 275 275 219 184 200 197 208 197 202 204 208 204 208 212 207 205 199 188 181 180 187 186 188 185 179 175 182 188 200 202 203 201 196 161 185 198 168
139 109 105 157 210 179 210 70 195 141 85 169 150 220 184 181 122 173 200 241 357 238 127 181 263 264 183 195 198 209 230 229 218 186 239 274 273 274 275 271 282 253 261 283 285 270 252 246 250 228 210 203 203 210 210 208 206 211 213 208 209 199 219 196 196 183 176 177 179 190 184 176 183 177 185 187 194 198 200 196 188 159 163 165 158 156
85 95 70 326 351 316 313 329 104 65 81 313 275 203 148 203 181 169 164 184 186 215 181 266 254 267 155 164 202 211 221 246 256 177 221 266 277 290 294 303 298 312 310 306 294 277 276 272 300 161 215 230 235 222 217 214 216 215 207 205 192 206 205 190 179 171 168 172 179 176 169 180 181 177 184 192 193 186 177 152 147 151 149 158 142 155
155 264 127 111 46 1 337 342 343 335 109 191 173 205 184 143 64 143 110 101 212 212 171 156 242 260 274 354 195 64 14 301 294 266 203 243 261 260 285 288 296 299 310 310 313 332 352 320 239 225 217 214 218 225 220 217 212 202 208 194 196 206 194 181 166 161 169 165 168 162 164 179 170 175 181 185 167 168 148 147 139 149 144 130 145 137
106 171 128 144 163 176 187 198 207 197 182 207 255 181 187 192 161 138 215 179 223 212 167 199 241 308 340 355 205 238 210 276 244 238 240 220 257 298 310 305 295 302 294 297 305 322 283 255 262 276 257 244 230 217 211 211 209 204 199 203 192 177 172 181 164 168 161 161 159 166 164 163 143 162 171 161 158 161 158 140 142 136 114 138 124 101
153 163 171 177 182 198 208 157 72 110 109 196 206 171 199 192 195 155 113 176 219 147 191 227 220 74 214 196 199 227 211 223 251 300 233 270 287 273 259 270 265 263 274 272 261 269 303 294 269 249 254 247 243 229 217 203 205 205 204 209 194 180 173 171 158 155 153 155 162 160 169 154 162 155 156 162 161 144 133 128 115 110 108 95 118 122
109 167 209 196 202 204 138 164 183 147 180 196 154 196 193 185 189 183 189 223 113 113 238 230 106 221 229 262 223 212 236 249 254 228 252 290 270 243 241 238 262 282 275 277 277 265 255 264 276 266 253 250 246 236 229 214 205 197 193 204 209 173 152 151 144 147 144 144 144 157 163 162 154 149 147 130 113 106 98 97 90 90 91 88 89 100
165 196 206 181 207 177 167 144 168 164 180 170 184 191 193 202 193 204 221 164 148 198 234 105 188 220 211 220 222 218 197 203 206 237 208 207 205 188 189 199 215 230 262 269 254 251 251 260 261 262 252 240 238 230 217 203 206 186 180 178 164 138 145 144 127 125 125 124 138 150 143 126 114 111 110 108 101 95 92 90 95 90 82 79 81 77
156 222 159 169 170 149 175 164 169 161 162 163 191 199 204 198 210 213 218 201 202 233 245 228 245 239 195 212 213 233 234 301 271 250 297 327 314 331 355 339 308 275 258 257 261 263 251 246 253 254 255 247 222 209 179 170 163 150 129 96 88 94 109 115 116 122 116 115 129 121 110 107 100 99 100 94 92 96 96 93 89 86 81 78 84 87
158 224 137 119 119 193 46 116 183 164 152 187 214 207 208 210 214 214 213 218 226 262 260 276 288 271 206 192 213 255 288 341 324 308 274 273 303 305 310 301 280 272 266 264 268 261 254 254 251 262 260 244 193 179 141 117 107 95 86 91 92 91 91 103 100 86 95 92 85 98 98 95 93 92 87 94 95 94 93 92 91 88 88 83 76 77
92 129 69 118 141 240 359 144 150 96 139 187 212 219 219 210 212 216 215 208 203 231 237 260 262 256 155 177 140 140 189 222 239 250 268 269 263 296 251 264 274 271 266 258 256 261 263 260 257 246 249 207 166 134 124 115 110 100 95 87 77 71 74 79 80 84 75 73 77 77 85 90 90 86 86 87 89 91 91 88 84 82 85 83 78 74
131 128 137 127 156 230 249 133 130 103 113 310 249 224 208 204 210 205 220 212 214 215 218 226 239 235 174 175 155 204 204 211 226 227 244 267 259 217 249 253 255 258 254 249 253 273 276 254 243 235 169 160 148 130 129 133 117 109 110 90 89 85 79 80 85 86 77 66 72 72 79 86 89 89 84 84 89 87 81 80 78 77 79 86 107 86
139 146 170 170 170 187 169 142 109 109 172 230 255 164 172 198 189 193 223 217 226 194 225 231 249 89 145 158 169 199 200 211 203 224 194 194 239 244 242 246 242 249 256 254 257 264 270 259 82 73 96 100 88 82 85 75 96 99 94 98 88 86 87 92 84 87 89 81 77 81 86 92 95 93 94 92 84 82 81 80 84 84 88 96 78 82
160 141 141 104 120 158 151 114 130 184 224 237 325 186 175 177 179 202 217 214 218 223 252 268 254 141 182 189 194 193 197 222 251 206 214 213 200 214 231 240 244 238 243 246 310 335 314 126 112 108 91 90 98 97 95 85 87 94 79 79 85 80 89 85 89 82 87 89 86 88 92 99 101 98 89 83 85 86 85 90 88 77 71 78 80 83
155 141 138 57 119 61 113 163 162 221 227 335 8 95 179 162 192 190 265 282 247 217 217 230 240 198 206 225 232 213 195 224 254 266 260 273 208 213 218 234 250 249 235 179 164 257 119 131 132 127 117 115 104 95 97 106 104 96 92 86 93 96 93 98 92 89 86 83 83 91 98 101 94 87 90 93 91 90 86 81 85 93 92 89 80 72
151 113 130 108 228 151 192 184 218 345 353 270 122 211 146 149 155 162 210 240 229 220 213 232 243 235 231 238 212 215 246 35 296 294 298 248 249 7 343 353 355 98 109 118 132 105 79 97 106 107 107 98 97 103 104 113 108 107 104 94 93 97 99 97 94 92 93 93 89 85 86 95 104 105 103 103 99 94 91 92 85 74 67 86 74 76
166 153 193 137 235 137 134 199 315 277 255 240 205 190 174 165 161 175 177 256 203 208 203 214 231 230 234 239 213 146 100 197 269 263 263 250 84 112 70 74 65 77 81 87 75 66 70 72 79 77 94 100 86 85 104 108 109 104 96 91 87 89 86 87 89 90 88 82 74 78 84 91 104 108 105 99 97 96 89 81 72 66 44 91 97 85
16 83 158 162 148 85 149 174 202 209 237 166 170 161 187 177 144 118 100 251 214 193 190 199 223 228 224 230 182 136 154 228 241 234 245 171 103 96 100 71 69 72 68 70 90 97 85 78 86 91 84 86 88 70 77 92 97 96 92 90 89 88 87 82 84 82 86 83 78 76 80 86 93 99 101 96 92 92 92 83 84 80 79 85 93 90
94 103 118 98 157 183 169 182 221 219 201 229 213 202 158 124 114 101 166 268 229 203 196 187 210 221 229 204 142 173 174 225 243 244 155 98 101 73 111 130 111 95 80 70 57 70 86 91 92 78 76 80 80 71 78 87 88 85 88 79 77 79 77 73 71 71 72 76 74 75 73 76 86 85 91 96 92 84 83 89 88 87 96 84 83 87
139 76 168 190 169 170 167 234 334 295 262 244 208 159 163 140 110 145 203 224 248 224 217 180 204 219 209 171 164 180 217 213 218 119 120 130 99 80 69 72 89 96 105 95 89 82 83 73 80 86 83 76 74 82 88 100 93 89 86 90 85 78 71 70 70 69 72 73 74 70 70 63 71 81 75 78 91 90 82 69 85 88 87 90 79 81
132 127 326 92 165 181 198 194 230 250 233 177 336 150 162 108 169 209 227 202 154 203 202 190 198 219 181 183 192 207 149 179 123 108 105 97 111 115 109 117 105 88 72 80 96 104 102 97 90 86 71 52 59 75 107 112 103 104 105 97 87 76 64 73 75 77 81 81 77 75 67 68 64 63 73 72 85 92 82 65 71 75 82 83 84 79
175 156 188 187 170 44 78 205 12 249 229 137 130 95 289 166 227 198 154 254 183 189 169 199 198 207 168 194 171 141 149 110 111 116 113 118 121 131 136 136 129 127 126 115 93 68 104 101 88 73 71 39 40 42 74 109 105 105 100 90 72 46 58 68 73 75 81 79 76 70 67 62 63 63 63 70 72 91 87 76 73 69 69 79 78 75
190 157 181 205 184 173 177 188 206 211 138 165 146 175 202 198 189 151 135 179 215 176 192 193 216 182 179 155 148 134 141 129 97 127 114 106 113 114 109 106 107 102 86 72 82 96 98 100 93 84 59 51 41 42 44 107 109 106 99 83 33 68 74 75 76 84 84 80 76 75 69 68 66 66 63 72 82 83 87 75 75 68 64 68 75 79
213 202 182 180 192 155 202 209 237 214 160 181 164 161 177 182 149 169 149 158 170 234 193 172 199 164 174 138 138 142 143 205 158 165 148 155 147 144 143 147 143 140 132 127 121 113 110 119 119 106 81 56 49 43 54 69 120 120 108 103 82 98 104 103 98 96 91 86 82 80 82 76 73 71 70 65 73 84 81 77 76 77 57 73 74 76
189 188 137 107 242 287 337 163 166 84 161 195 308 308 166 146 79 125 139 127 230 181 175 175 170 153 146 146 128 188 170 161 152 159 137 146 146 139 125 120 112 112 115 115 115 119 123 116 109 109 103 75 52 58 56 49 82 113 117 97 77 91 108 110 105 96 91 88 82 81 85 85 75 68 67 69 67 76 78 89 84 88 78 77 79 77
237 123 109 162 190 132 241 141 138 182 186 197 172 41 40 90 161 168 178 195 162 163 169 186 150 156 156 161 155 156 160 162 153 152 151 148 154 152 151 143 143 148 149 147 145 136 134 130 119 116 111 100 59 62 62 67 54 64 81 76 69 87 101 101 103 100 93 90 87 80 79 87 85 83 71 69 74 72 71 68 75 79 76 74 76 77
253 200 150 198 151 182 235 179 181 223 187 178 135 139 160 173 102 89 225 144 132 127 126 148 131 125 137 148 158 146 159 168 158 164 166 169 161 162 156 154 150 144 140 135 142 141 125 124 126 124 116 105 92 68 72 70 66 49 58 58 61 96 103 102 102 104 102 98 97 87 83 86 91 91 86 70 69 71 65 63 65 74 72 63 62 69
154 124 210 168 173 287 25 340 329 79 44 259 262 278 230 170 151 108 125 123 131 121 110 78 35 159 174 163 150 140 146 185 182 166 163 160 161 165 166 154 151 143 139 141 139 134 132 133 125 122 116 108 99 91 78 66 60 44 43 38 49 101 114 112 108 106 100 101 96 93 93 91 83 81 85 84 75 70 69 64 55 66 74 76 84 76
111 186 175 121 184 208 195 187 159 125 229 252 246 221 200 153 132 130 124 129 140 137 149 132 79 28 167 155 158 154 161 174 178 168 166 168 167 159 151 145 139 138 132 123 114 114 110 112 124 125 119 112 108 98 93 78 56 42 33 30 28 73 112 115 110 102 98 99 96 90 85 80 74 69 74 79 81 83 77 71 76 74 72 67 71 70
178 183 153 183 193 216 153 169 186 169 178 193 197 183 145 163 149 149 171 172 181 177 165 146 130 104 120 161 190 160 157 166 169 159 150 158 160 153 150 147 148 145 144 139 128 126 130 131 127 122 119 121 118 110 100 95 74 50 33 31 23 61 100 112 112 102 95 88 80 79 81 82 79 67 72 69 77 81 92 91 73 76 78 79 75 70